Overview Statistics Trail Chart Weather Telemetry Raw packets
 

This is the latest recevied weather packets stored in our database for station/object OE6ATD-13. If no packets are shown the sender has not sent any weather packets the latest 10 day(s).

<< 48 49 50 51 52 53 54 >>
Time Temp. Humidity Pressure Rain* Wind** Luminosity Snow
1787960424 21.67° C 82% 1011.6 hPa 0 mm - 0 W/m² -
1787959820 21.11° C 86% 1011.6 hPa 0 mm - 0 W/m² -
1787959215 21.67° C 88% 1011.6 hPa 0.25 mm - 0 W/m² -
1787958626 21.67° C 88% 1011.4 hPa 0.25 mm - 0 W/m² -
1787958022 21.67° C 87% 1011.3 hPa 0.25 mm - 0 W/m² -
1787957418 22.22° C 84% 1011.2 hPa 0.25 mm - 0 W/m² -
1787956829 22.78° C 78% 1010.9 hPa 0.25 mm - 0 W/m² -
1787956224 23.33° C 75% 1011.3 hPa 0.25 mm - 0 W/m² -
1787955621 23.33° C 74% 1012.8 hPa 0 mm - 0 W/m² -
1787955016 23.89° C 74% 1013.9 hPa 0 mm - 0 W/m² -
1787954425 23.33° C 82% 1014 hPa 0 mm - 0 W/m² -
1787953821 23.33° C 83% 1012.9 hPa 0 mm - 0 W/m² -
1787953217 22.78° C 87% 1012.1 hPa 0 mm - 0 W/m² -
1787952628 22.22° C 89% 1012 hPa 0 mm - 0 W/m² -
1787952024 22.22° C 88% 1012 hPa 0 mm - 0 W/m² -
1787951434 22.22° C 90% 1012 hPa 0 mm - 0 W/m² -
1787950823 22.22° C 87% 1011.8 hPa 0 mm - 0 W/m² -
1787950219 22.22° C 86% 1011.6 hPa 0 mm - 0 W/m² -
1787949629 22.22° C 86% 1011.5 hPa 0 mm - 0 W/m² -
1787949025 22.22° C 86% 1011.8 hPa 0 mm - 0 W/m² -
1787948421 22.22° C 86% 1011.6 hPa 0 mm - 0 W/m² -
1787947817 22.78° C 83% 1011.4 hPa 0 mm - 0 W/m² -
1787947228 22.78° C 83% 1011.7 hPa 0 mm - 0 W/m² -
1787946629 23.33° C 82% 1011.7 hPa 0 mm - 0 W/m² -
1787946020 23.33° C 82% 1011.6 hPa 0 mm - 0 W/m² -

* Rain latest hour (hover to see other rain measurements)
** Current wind speed in m/s (hover to see current wind gust speed)